Regional Weather Roundup
Issued by NWS

Home | Current Version | Previous Version | Text Only | Print | Product List | Glossary On
Versions: 1 2 3 4 5 6 7 8 9 10 11 12 13 14 15 16 17 18 19 20 21 22 23 24 25 26 27 28 29 30 31 32 33 34 35 36 37 38 39 40 41 42 43 44 45 46 47 48 49 50
000
ASUS42 KTBW 300417
RWRFL
FLORIDA REGIONAL WEATHER ROUNDUP
NATIONAL WEATHER SERVICE TAMPA BAY RUSKIN FL
1200 AM EDT SAT APR 30 2016

NOTE: "FAIR" INDICATES FEW OR NO CLOUDS BELOW 12,000 FEET WITH NO
SIGNIFICANT WEATHER AND/OR OBSTRUCTIONS TO VISIBILITY.

FLZ001>010-012>015-112-114-115-300500-
PANHANDLE FLORIDA

CITY           SKY/WX    TMP DP  RH WIND       PRES   REMARKS
PENSACOLA      CLOUDY    76  73  91 SE7       29.95R
MILTON NAS     LGT RAIN  71  71 100 E3        29.95
CRESTVIEW      PTCLDY    68  66  93 CALM      29.97S
DUKE FIELD     FOG       71  70  97 E1        29.95R VSB 1/2
VALPARAISO     PTCLDY    74  72  94 SE6       29.95R
MARY ESTHER    PTCLDY    74  74  98 SE3       29.94R
PANAMA CITY    FAIR      71  70  96 CALM      29.96S
TYNDALL AFB    CLEAR     72  70  94 MISG      29.96S FOG
APALACHICOLA   CLEAR     73  72  96 CALM      29.94F

STATION/POSITION SKY/WX   TEMP    WIND        PRES    WAVE   SWELL
                          AIR SEA DIR/SP/G            HT/PER HT/PER
                          (F)     (DEG/KT/KT) (MB)    (FT/S) (FT/S)
30.1N   87.6W              75 74  120/  8/ 10 1012.8R   2/ 6   2/ 6
29.2N   88.2W              75 74  120/ 10/ 12 1012.6R
28.8N   86.0W              78 78  150/ 12/ 14 1013.9F   2/ 5   2/ 6
PANAMA CITY BEAC           75 79                N/A
TOWER C                    74     220/  7/  7 1014.4F
28.5N   84.5W              76 76  210/  2/  4 1014.1F   1/ 5   2/ 5

$$
FLZ011-016>038-118-127-128-134-139-239-300500-
NORTH FLORIDA

CITY           SKY/WX    TMP DP  RH WIND       PRES   REMARKS
MARIANNA       PTCLDY    73  71  93 W3        29.96S
TALLAHASSEE    CLEAR     73  67  81 CALM      29.96S
PERRY          FOG       71  69  96 CALM      29.97S VSB 1
LIVE OAK         N/A     73  73 100 CALM      29.98S
CROSS CITY       N/A     71  69  93 CALM      29.96S
LAKE CITY      FAIR      72  70  94 CALM      29.97S
GAINESVILLE    CLEAR     73  67  81 CALM      29.98S
WILLISTON      FAIR      72  72 100 CALM      29.99S
PALATKA        MOCLDY    73  72  94 SE6       29.99S
MAYPORT NAS    PTCLDY    73  71  93 S8        29.98S
JACKSONVILLE   PTCLDY    73  71  93 SE6       29.97F
JAX NAS        PTCLDY    78  68  71 S10       29.99S
JAX CECIL      PTCLDY    70  68  94 CALM      29.98F
FERNANDINA BEA MOCLDY    77  73  88 S7        29.97F
ST AUGUSTINE   CLEAR     74  71  91 S6        29.99F
PALM COAST     FAIR      71  71 100 E3        29.98F

STATION/POSITION SKY/WX   TEMP    WIND        PRES    WAVE   SWELL
                          AIR SEA DIR/SP/G            HT/PER HT/PER
                          (F)     (DEG/KT/KT) (MB)    (FT/S) (FT/S)
SHELL POINT                77     240/  7/  8 1013.6
KEATON BEACH               76     290/  4/  5 1014.1F
CEDAR KEY                  77     340/  2/  3 1014.9F
FERNANDINA                 74 78                N/A
30.7N   81.3W                 74                N/A     2/11
MAYPORT                    74 76                N/A
ST AUGUSTINE               73 72  190/  7/  7 1016.0F

$$
FLZ040-043>046-052-053-057-058-063-144-300500-
INTERIOR CENTRAL FLORIDA

CITY           SKY/WX    TMP DP  RH WIND       PRES   REMARKS
OCALA          PTCLDY    72  64  78 CALM      29.98S
THE VILLAGES     N/A     75  70  83 CALM      29.88F
LEESBURG       CLEAR     78  69  73 SE8       29.99S
SANFORD        PTCLDY    75  68  78 CALM      29.98F
ORLANDO EXEC   MOCLDY    78  68  71 CALM      29.98S
ORLANDO INTL   CLOUDY    74  67  78 SE5       29.99S
WINTER HAVEN   PTCLDY    77  68  73 E10       29.98F
BARTOW         FAIR      73  66  78 CALM      29.98F
OKEECHOBEE     CLOUDY    73  68  83 CALM      30.00R

$$
FLZ041-047-054-059-064-141-147-300500-
EAST CENTRAL FLORIDA

CITY           SKY/WX    TMP DP  RH WIND       PRES   REMARKS
DAYTONA BEACH  CLEAR     73  71  93 CALM      29.98F
DELAND           N/A     73  70  88 CALM      30.00S
JFK SPACE CTR  CLEAR     73  69  88 SE5       29.97F
CAPE CANAVERAL CLEAR     73  71  93 SE5       29.97F
PATRICK AFB    CLEAR     77  72  83 S9        29.98S
MELBOURNE      PTCLDY    75  69  81 S5        29.99S
VERO BEACH     CLOUDY    76  68  76 SE7       29.99S
FT PIERCE      CLEAR     75  68  78 SE5       29.98S
STUART         CLEAR     77  68  73 SE5       30.00S

STATION/POSITION SKY/WX   TEMP    WIND        PRES    WAVE   SWELL
                          AIR SEA DIR/SP/G            HT/PER HT/PER
                          (F)     (DEG/KT/KT) (MB)    (FT/S) (FT/S)
28.5N   80.2W              78 78  160/  6/  8 1015.9R
28.9N   78.5W              76 77  170/  6/  8 1015.7F
TRIDENT PIER               76 80                N/A
28.4N   80.5W                 77                N/A     2/10
27.5N   80.2W                 78                N/A     2/11

$$
FLZ050-056-061-142-242-148-248-149-249-151-251-155-255-
160-260-300500-
WEST CENTRAL FLORIDA

CITY           SKY/WX    TMP DP  RH WIND       PRES   REMARKS
CRYSTAL RIVER  FAIR      70  68  94 CALM      29.98S
INVERNESS      FAIR      72  70  94 CALM      29.98F
BROOKSVILLE    PTCLDY    71  67  87 E5        29.99R
ZEPHYRHILLS    FAIR      69  62  78 E3        29.99S
CLEARWATER AIR FAIR      73  68  83 CALM      29.97S
ST PETE CLEARW MOCLDY    77  68  73 NE3       29.97R
TAMPA INTL     MOCLDY    79  68  69 NE3       29.98R
TAMPA EXEC     CLEAR     72  68  88 CALM      29.99R
PLANT CITY     PTCLDY    77  68  73 CALM      29.99F
MACDILL AFB    MOCLDY    74  68  82 SE2       29.98R
PETER O KNIGHT MOCLDY    79  70  73 E7        29.98S
ST PETERSBURG  PTCLDY    78  68  71 CALM      29.96R
SARASOTA       MOCLDY    77  67  71 CALM      29.96S
VENICE         NOT AVBL

STATION/POSITION SKY/WX   TEMP    WIND        PRES    WAVE   SWELL
                          AIR SEA DIR/SP/G            HT/PER HT/PER
                          (F)     (DEG/KT/KT) (MB)    (FT/S) (FT/S)
27.3N   84.2W                 80                N/A     1/ 6
CLEARWATER BEACH           78 81                N/A
MIDDLE TAMPA BAY NOT AVBL
VENICE                     77 81  110/  7/  9 1015.1R

$$
FLZ066-069-070-075>078-162-262-165-265-300500-
SOUTHWEST FLORIDA AND KEYS

CITY           SKY/WX    TMP DP  RH WIND       PRES   REMARKS
PUNTA GORDA    MOCLDY    72  72 100 S8        30.00F
FT MYERS       CLOUDY    72  66  81 CALM      29.97F
SOUTHWEST INTL CLOUDY    71  67  87 NE5       29.98F
NAPLES         CLEAR     76  69  79 NE5       29.97F
MARCO ISLAND   CLEAR     73  66  78 CALM      29.97F
MARATHON       CLEAR     78  68  71 E10       29.96F
KEY WEST NAS   CLEAR     78  68  71 E15       29.96S
KEY WEST INTL  CLEAR     78  71  79 E13       29.96S

STATION/POSITION SKY/WX   TEMP    WIND        PRES    WAVE   SWELL
                          AIR SEA DIR/SP/G            HT/PER HT/PER
                          (F)     (DEG/KT/KT) (MB)    (FT/S) (FT/S)
NAPLES                        83                N/A
26.0N   85.6W              79 80  110/ 14/ 16 1013.3F   3/ 6   2/14
DRY TORTUGAS               79     120/ 12/ 13 1014.2S
SAND KEY                   79     110/ 17/ 20 1014.7R
LONG KEY                   79 82  100/ 15/ 17 1014.8F
MOLASSES REEF              78 80   90/ 15/ 16 1015.2

$$
FLZ067-068-071>074-168-172>174-300500-
SOUTHEAST FLORIDA

CITY           SKY/WX    TMP DP  RH WIND       PRES   REMARKS
W PALM BEACH   PTCLDY    78  68  71 SE8       29.99F
FT LAUDER-EXEC PTCLDY    77  67  71 SE9       29.98S
FT LAUDERDALE  CLOUDY    78  67  68 SE10      29.98S
POMPANO BEACH  CLEAR     75  68  78 SE8       29.99S
PEMBROKE PINES CLOUDY    77  67  71 E8        30.00S
OPA LOCKA      MOCLDY    78  68  71 SE7       29.99S
MIAMI          CLOUDY    77  67  71 E10       29.98F
WEST KENDALL     N/A    N/A N/A N/A MISG      29.98S
HOMESTEAD      PTCLDY    76  67  74 E7        29.97F

STATION/POSITION SKY/WX   TEMP    WIND        PRES    WAVE   SWELL
                          AIR SEA DIR/SP/G            HT/PER HT/PER
                          (F)     (DEG/KT/KT) (MB)    (FT/S) (FT/S)
PORT EVERGLADES            78     110/  4/  8 1015.4S
VIRGINIA KEY               78 82                N/A
LAKE WORTH                 78 79                N/A
SETTLEMENT POINT           76     140/  6/  7 1016.4F

$$




USA.gov is the U.S. government's official web portal to all federal, state and local government web resources and services.